Find Starlink 3582

NORAD ID: 51873 Int'l Des: 2022-022 Owner: SPXS Country: US Constellation: starlink operational
LEOCIRCULAR

リアルタイム位置

3D地球を読み込み中...

Starlink 3582について

説明を読み込み中...

次回通過

Passes for default location (London). Set your location on the main map for personalized predictions.

高度履歴

Loading altitude history...

軌道要素

1 51873U 22022X 26127.52356595 .00022141 00000-0 10177-2 0 9998
2 51873 53.2130 96.9480 0005773 49.0518 311.0978 15.20301146232116
Epoch: May 7, 2026 • Age: 9 hours

現在のステータス

高度 513.7 km
速度 7.61 km/s
衛星直下点 -19.04°S, 104.21°E
打ち上げ日 Mar 3, 2022
運用期間 4.1 years
タイプ internet

技術仕様

分類 Payload
質量 297.00 kg
乾燥質量 275.00 kg
総質量 297.00 kg
長さ 0.20 m
直径 2.80 m
スパン 9.00 m
形状 Box + pan
製造者 SPXS
バスタイプ Starlink
フェーズステータス In Orbit
所有者/国 SPXS/US

Most Searched